Regional Weather Roundup
Issued by NWS

Home | Current Version | Previous Version | Text Only | Print | Product List | Glossary Off
Versions: 1 2 3 4 5 6 7 8 9 10 11 12 13 14 15 16 17 18 19 20 21 22 23 24 25 26 27 28 29 30 31 32 33 34 35 36 37 38 39 40 41 42 43 44 45 46 47 48 49 50

000
ASUS43 KMKX 282011
RWRWI

WISCONSIN REGIONAL WEATHER ROUNDUP
NATIONAL WEATHER SERVICE MILWAUKEE/SULLIVAN WI
300 PM CDT SUN AUG 28 2016

NOTE: "FAIR" INDICATES FEW OR NO CLOUDS BELOW 12,000 FEET WITH NO
SIGNIFICANT WEATHER AND/OR OBSTRUCTIONS TO VISIBILITY.

WIZ001-002-006>008-014>016-023>028-282100-
NORTHWEST WISCONSIN

CITY           SKY/WX    TMP DP  RH WIND       PRES   REMARKS
SUPERIOR ARPT  SUNNY     72  64  77 NE7       30.15F
ASHLAND        SUNNY     76  62  62 VRB5      30.17F
HAYWARD        MOSUNNY   75  63  66 S9        30.18F
SIREN          PTSUNNY   74  65  73 S8        30.16F
CUMBERLAND     CLOUDY    70  64  83 SE6       30.19S
RICE LAKE      CLOUDY    76  65  69 SE6       30.19F
CHETEK         NOT AVBL
LADYSMITH      PTSUNNY   76  65  70 S3        30.21F
EAU CLAIRE     PTSUNNY   79  65  62 S8        30.16F HX  81
MENOMONIE      PTSUNNY   79  68  69 SE7       30.17F HX  81
NEW RICHMOND   MOSUNNY   76  69  79 E10       30.15F
OSCEOLA        MOSUNNY   78  73  84 E13       30.17F HX  81
$$

WIZ003>005-009-010-017-018-282100-
NORTH CENTRAL WISCONSIN

CITY           SKY/WX    TMP DP  RH WIND       PRES   REMARKS
MANITOWISH WTR NOT AVBL
ARBOR VITAE    MOSUNNY   74  63  68 S3        30.22S
WOODRUFF       MOSUNNY   74  63  68 S3        30.22S
RHINELANDER    MOSUNNY   78  61  55 VRB3      30.22S HX  80
EAGLE RIVER    CLOUDY    73  58  60 W3        30.21S
LAND O LAKES   CLOUDY    73  59  62 CALM      30.22S
PHILLIPS       PTSUNNY   75  63  67 SW3       30.20F
TOMAHAWK       MOSUNNY   77  61  57 CALM      30.21S
MEDFORD        MOSUNNY   75  65  70 S5        30.21S
MERRILL        MOSUNNY   75  63  66 SW5       30.21F
$$

WIZ029-030-035-036-043>047-282100-
CENTRAL WISCONSIN

CITY           SKY/WX    TMP DP  RH WIND       PRES   REMARKS
WAUSAU         SUNNY     75  61  61 S6        30.19F
MOSINEE        MOSUNNY   75  64  69 SW3       30.22
MARSHFIELD     MOSUNNY   79  64  60 S5        30.19F HX  81
STEVENS POINT  MOSUNNY   76  62  61 W6        30.20F
WAUPACA        MOSUNNY   81  64  55 SE6       30.19F HX  82
WAUTOMA        MOSUNNY   80  65  59 S6        30.19F HX  82
WISC RAPIDS    SUNNY     78  63  59 CALM      30.20F HX  80
CAMP DOUGLAS   PTSUNNY   77  66  69 E5        30.18F
$$

WIZ011>013-019>022-031-037>040-048>050-282100-
NORTHEAST WISCONSIN

CITY           SKY/WX    TMP DP  RH WIND       PRES   REMARKS
ANTIGO         MOSUNNY   75  62  62 CALM      30.22S
SHAWANO        SUNNY     80  62  53 S5        30.19S HX  81
OCONTO         NOT AVBL
STURGEON BAY   MOSUNNY   76  63  64 NW7       30.20F
GREEN BAY      MOSUNNY   78  65  63 W5        30.18F HX  80
MANITOWOC      SUNNY     73  64  73 E8        30.20F
APPLETON       MOSUNNY   77  61  57 VRB5      30.18F
CLINTONVILLE   MOSUNNY   79  61  53 S3        30.19F HX  80
OSHKOSH        SUNNY     76  64  66 NE6       30.19F
$$

WIZ032>034-041-042-053>061-282100-
SOUTHWEST WISCONSIN

CITY           SKY/WX    TMP DP  RH WIND       PRES   REMARKS
LA CROSSE      PTSUNNY   82  70  66 E8        30.15F HX  86
SPARTA         MOSUNNY   77  66  68 SE3       30.18F
VIROQUA        PTSUNNY   80  68  67 E3        30.19F HX  82
BOSCOBEL       MOSUNNY   84  71  65 E5        30.16F HX  89
PRAIRIE DU CHI MOSUNNY   83  66  56 CALM      30.14F HX  85
PLATTEVILLE    PTSUNNY   83  73  70 CALM      30.17F HX  89
$$

WIZ056-057-062-063-064-067-068-282100-
SOUTH CENTRAL WISCONSIN

CITY           SKY/WX    TMP DP  RH WIND       PRES   REMARKS
REEDSBURG      NOT AVBL
BARABOO/DELLS  MOSUNNY   76  66  71 CALM      30.20F
LONE ROCK      MOSUNNY   79  70  74 VRB3      30.18F HX  82
MINERAL POINT  SUNNY     82  64  54 CALM      30.18F HX  84
MADISON        PTSUNNY   79  68  69 SE3       30.18F HX  81
MIDDLETON      SUNNY     79  69  71 NE5       30.20S HX  82
WATERTOWN      SUNNY     78  67  68 CALM      30.19S HX  80
MONROE         MOSUNNY   82  68  61 CALM      30.18S HX  85
JANESVILLE     PTSUNNY   84  68  58 NE5       30.16F HX  87
$$

WIZ051-052-058>065-066-070>072-282100-
SOUTHEAST WISCONSIN

CITY           SKY/WX    TMP DP  RH WIND       PRES   REMARKS
MILWAUKEE      MOSUNNY   74  66  76 E10       30.20F
WAUKESHA       PTSUNNY   77  64  65 MISG      30.20F
MILWAUKEE/TIMM MOSUNNY   77  63  61 E6        30.20F
RACINE         PTSUNNY   75  66  73 E10       30.22F
BURLINGTON     MOSUNNY   80  67  66 SE8       30.19S HX  82
KENOSHA        SUNNY     77  68  73 E10       30.22R
FOND DU LAC    SUNNY     79  65  62 VRB3      30.19F HX  81
SHEBOYGAN      SUNNY     76  66  71 SE6       30.19F
WEST BEND      MOSUNNY   79  64  61 CALM      30.20R HX  81
JUNEAU         MOSUNNY   76  67  74 NW5       30.21F
$$

LSZ147-162-282100-
LAKE SUPERIOR

STATION/POSITION TIME  TEMP    WIND        PRES    WAVE
                       AIR SEA DIR/SP/G            HT/PER
                 (UTC) (F)     (DEG/KT/KT) (MB)    (FT/S)
W MID LAKE BUOY  1950   66 68  240/  6/  8 1021.9F   1
DEVILS ISLAND    2000   65      30/  6/  7 1022.0F
PORT WING        1900   67     360/  5/  7 1022.0S
SAXON HARBOR     1940   69      40/  6/  8 1022.0S
$$

LMZ867-665-643>646-282100-
LAKE MICHIGAN

STATION/POSITION TIME  TEMP    WIND        PRES    WAVE
                       AIR SEA DIR/SP/G            HT/PER
                 (UTC) (F)     (DEG/KT/KT) (MB)    (FT/S)
CHAMBERS ISLAND  1940   73     170/  6/ 10 1022.0F
N MID LAKE BUOY  1950   70 72  210/  4/  6 1021.9F   1
NORTHPORT PIER   1900   73     120/  4/  5 1022.4F
KEWAUNEE LAKESHO 1900   66     180/  5/  6 1022.6F
SHEBOYGAN LAKESH 2000   65     170/  7/  7 1022.1F
PORT WASHINGTON  1900   71     170/  5/  6 1023.4
ATWATER BUOY     2000   68     140/  8/ 10   N/A
MILWAUKEE LAKESH 1910   67     120/  5/  5   N/A
S MID LAKE BUOY  1950   72 75   50/  6/  8 1022.2R   1
KENOSHA   LAKESH 2000   69      80/  2/  2 1022.7R
$$

TC  - TEMPERATURE IN CELSIUS
VSB - VISIBILITY IN STATUTE MILES
WCI - WIND CHILL INDEX
HX  - HEAT INDEX





USA.gov is the U.S. government's official web portal to all federal, state and local government web resources and services.